Regional Weather Roundup
Issued by NWS

Home | Current Version | Previous Version | Graphics & Text | Print | Product List | Glossary On
Versions: 1 2 3 4 5 6 7 8 9 10 11 12 13 14 15 16 17 18 19 20 21 22 23 24 25 26 27 28 29 30 31 32 33 34 35 36 37 38 39 40 41 42 43 44 45 46 47 48 49 50
000
ASUS43 KDMX 270604
RWRIA

WEATHER ROUNDUP FOR IOWA
NATIONAL WEATHER SERVICE DES MOINES IA
  ISSUED BY NWS QUAD CITIES IA IL
1200 AM CST TUE JAN 27 2015

NOTE: "FAIR" INDICATES FEW OR NO CLOUDS BELOW 12,000 FEET WITH NO
SIGNIFICANT WEATHER AND/OR OBSTRUCTIONS TO VISIBILITY.

* - THESE STATIONS ARE NOT NWS STATIONS...THUS NOT UNDER NWS
QUALITY CONTROL.  THEY ALSO DO NOT REPORT WEATHER SUCH
AS PRECIPITATION OR FOG.

IAZ001>003-012>014-020>022-031>034-043>046-270700-
   NORTHWEST IOWA

CITY           SKY/WX    TMP DP  RH WIND       PRES   REMARKS
CARROLL *      CLEAR     32  32 100 NW9       30.02S WCI  24
CHEROKEE *     CLEAR     33  33  98 CALM      30.04R
6HR MIN TEMP:  31; 6HR MAX TEMP:  42;

DENNISON *     CLEAR     36  34  93 N6        30.02R WCI  31
SIOUX CITY     CLEAR     34  30  85 NW8       30.06R WCI  27
6HR MIN TEMP:  33; 6HR MAX TEMP:  48;

SPENCER        CLEAR     31  28  89 W6        30.02R WCI  25
6HR MIN TEMP:  30; 6HR MAX TEMP:  39;

$$

IAZ055>058-069>071-079>083-090>094-270700-
   SOUTHWEST IOWA

CITY           SKY/WX    TMP DP  RH WIND       PRES   REMARKS
ATLANTIC *     PTCLDY    34  32  93 NW6       30.03S WCI  29
AUDUBON *      CLEAR     34  30  86 NW3       30.03S
CLARINDA *     CLEAR     37  32  81 N6        30.05S WCI  33
COUNCIL BLFS * CLEAR     39  36  87 NW8       30.03S WCI  34
CRESTON *      PTCLDY    32  32 100 NW9       30.02R WCI  24
HARLAN *       CLEAR     34  34 100 N5        30.07R WCI  30
LAMONI         PTCLDY    33  30  88 NW10      30.01R WCI  25
6HR MIN TEMP:  33; 6HR MAX TEMP:  43;

$$

IAZ047>049-059>061-072>074-084-270700-
   CENTRAL IOWA

CITY           SKY/WX    TMP DP  RH WIND       PRES   REMARKS
AMES           CLOUDY    39  32  76 N13       30.00R WCI  31
6HR MIN TEMP:  39; 6HR MAX TEMP:  45;

BOONE *        CLOUDY    37  34  87 N10       29.99R WCI  30
CHARITON *     CLEAR     36  34  93 NW10      29.99R WCI  28
DES MOINES     MOCLDY    38  32  79 NW9       30.01R WCI  31
6HR MIN TEMP:  36; 6HR MAX TEMP:  48;

GRINNELL *     CLEAR     34  31  88 NW9       29.97R WCI  27
6HR MIN TEMP:  34; 6HR MAX TEMP:  41;

MARSHALLTOWN   CLEAR     34  31  88 NW12      29.97R WCI  25
6HR MIN TEMP:  34; 6HR MAX TEMP:  39;

PERRY *          N/A     32  32  99 NW7       30.02R WCI  26
6HR MIN TEMP:  32; 6HR MAX TEMP:  44;

$$

IAZ004>006-015-016-023>025-035-036-270700-
   NORTH CENTRAL IOWA

CITY           SKY/WX    TMP DP  RH WIND       PRES   REMARKS
ALGONA *       PTCLDY    36  34  93 N10G16    30.01R WCI  28
CLARION *      CLOUDY    36  34  93 NW9       30.00R WCI  29
ESTHERVILLE    CLOUDY    33  31  92 N7        30.00R WCI  27
6HR MIN TEMP:  32; 6HR MAX TEMP:  39;

FORT DODGE *   CLOUDY    36  30  80 N7        30.02R WCI  30
6HR MIN TEMP:  34; 6HR MAX TEMP:  41;

MASON CITY     CLOUDY    34  30  85 NW10      29.99R WCI  26
6HR MIN TEMP:  34; 6HR MAX TEMP:  39; 6HR PCP: TRACE;

WEBSTER CITY * CLOUDY    36  36 100 NW10      29.99R WCI  28
IOWA FALLS *   CLOUDY    36  31  83 NW13      29.99R WCI  27
6HR MIN TEMP:  36; 6HR MAX TEMP:  39;

$$

IAZ007>011-017>019-026>030-037>042-050>054-066-270700-
   NORTHEAST IOWA

CITY           SKY/WX    TMP DP  RH WIND       PRES   REMARKS
CEDAR RAPIDS   PTCLDY    33  32  96 NW8       29.92R WCI  26
6HR MIN TEMP:  33; 6HR MAX TEMP:  39;

CHARLES CITY * CLOUDY    36  34  93 NW12      29.96R WCI  27
CLINTON *      CLOUDY    28  25  86 NW5       29.93S WCI  23
6HR MIN TEMP:  27; 6HR MAX TEMP:  28;

DECORAH *      CLOUDY    36  34  93 NW7       29.92R WCI  30
DUBUQUE        CLOUDY    30  27  88 N5        29.91R FOG     WCI  25
6HR MIN TEMP:  26; 6HR MAX TEMP:  30;

WATERLOO       CLEAR     33  30  88 NW9       29.95R WCI  25
6HR MIN TEMP:  33; 6HR MAX TEMP:  42;

$$

IAZ064-065-067-068-078-270700-
   EAST CENTRAL IOWA

CITY           SKY/WX    TMP DP  RH WIND       PRES   REMARKS
DAVENPORT      CLOUDY    32  29  88 NW6       29.91S FOG     WCI  26
6HR MIN TEMP:  31; 6HR MAX TEMP:  33;

IOWA CITY      PTCLDY    36  33  89 NW8       29.95R WCI  30
6HR MIN TEMP:  32; 6HR MAX TEMP:  41;

QUAD CITIES    CLOUDY    32  30  92 SW5       29.91R FOG     WCI  27
6HR MIN TEMP:  31; 6HR MAX TEMP:  33;

$$

IAZ062-063-075>077-085>089-095>099-270700-
   SOUTHEAST IOWA

CITY           SKY/WX    TMP DP  RH WIND       PRES   REMARKS
BURLINGTON     CLOUDY    39  35  86 NW12      29.92R WCI  32
6HR MIN TEMP:  33; 6HR MAX TEMP:  41;

FAIRFIELD *    PTCLDY    36  32  87 NW12      29.95R WCI  27
FORT MADISON * CLOUDY    39  37  93 NW9       29.94R WCI  33
KEOKUK *       CLOUDY    41  36  81 NW14G21   29.93R WCI  33
OTTUMWA        CLEAR     36  30  79 NW16      29.97R WCI  26
6HR MIN TEMP:  36; 6HR MAX TEMP:  43;

WASHINGTON *   MOCLDY    37  37 100 NW10      29.94R WCI  30
$$

ABBREVIATIONS USED IN REMARKS
   TC - TEMPERATURES IN CELSIUS
  WCI - WIND CHILL INDEX
   HX - HEAT INDEX
  VSB - VISIBILITY
$$


USA.gov is the U.S. government's official web portal to all federal, state and local government web resources and services.